contact:dominique.lefevre@mio.osupytheas.fr, maurice.libes@osupytheas.fr, didier.mallarino@osupytheas.fr
Project:EMSO http://www.emso-fr.org/EMSO-France
Depth: 2436.0 m
Title:EMSO Ligure Ouest : Data MII capteur AQUADOPP
Date,Latitude,Longitude,X_East,Y_North,Z_Up,Amplitude_X,Amplitude_Y,Amplitude_Z,Batterie,SoundSpeed,Heading,Pitch,Roll,Pressure,TIS,Speed,Direction
, degrees North, degrees East, m.s-1, m.s-1,m.s-1, 1, 1, 1, Volt, m.s-1, degree, degree, degree, dbar, degree_C, m.s-1, degree
2019-08-04T00:00:41,42.805,6.029,0.013,0.018,0.0,105.0,110.0,100.0,13.4,1505.4,325.2,-0.7,1.8,2470.138,13.34,0.022,35.8
2019-08-04T00:03:42,42.805,6.029,0.01,0.024,-0.005,106.0,108.0,101.0,13.4,1505.4,327.5,-0.7,1.8,2470.126,13.34,0.026,22.6
2019-08-04T00:06:43,42.805,6.029,0.013,0.007,0.009,105.0,108.0,100.0,13.4,1505.4,327.2,-0.7,1.8,2470.112,13.34,0.014,61.7
2019-08-04T00:09:44,42.805,6.029,0.002,0.014,-0.014,106.0,107.0,102.0,13.4,1505.4,323.8,-0.8,1.8,2470.087,13.34,0.014,8.1
2019-08-04T00:12:45,42.805,6.029,-0.013,0.011,-0.04,104.0,109.0,102.0,13.4,1505.4,325.8,-0.7,1.8,2470.133,13.34,0.017,310.2
2019-08-04T00:15:46,42.805,6.029,-0.002,0.01,-0.012,104.0,108.0,101.0,13.3,1505.4,325.3,-0.7,1.8,2470.099,13.34,0.01,348.7
2019-08-04T00:18:47,42.805,6.029,0.011,0.017,-0.003,106.0,109.0,101.0,13.3,1505.4,326.6,-0.7,1.8,2470.087,13.34,0.02,32.9
2019-08-04T00:21:48,42.805,6.029,-0.008,0.019,-0.033,106.0,107.0,102.0,13.4,1505.4,327.7,-0.7,1.9,2470.054,13.34,0.02,337.2
2019-08-04T00:24:49,42.805,6.029,-0.008,0.004,-0.019,105.0,108.0,102.0,13.3,1505.4,326.8,-0.7,1.8,2470.058,13.34,0.008,296.6
2019-08-04T00:27:50,42.805,6.029,-0.005,0.021,-0.005,106.0,109.0,100.0,13.4,1505.4,326.2,-0.7,1.8,2470.068,13.34,0.021,346.6
2019-08-04T00:30:51,42.805,6.029,-0.021,0.016,-0.015,104.0,112.0,101.0,13.4,1505.4,324.5,-0.7,1.8,2470.119,13.34,0.026,307.3
2019-08-04T00:33:52,42.805,6.029,0.021,0.0,0.014,103.0,108.0,102.0,13.4,1505.4,327.3,-0.7,1.9,2470.101,13.34,0.021,90.0
2019-08-04T00:36:53,42.805,6.029,-0.018,0.012,0.012,105.0,108.0,101.0,13.3,1505.4,325.6,-0.7,1.8,2470.087,13.34,0.021,303.7
2019-08-04T00:39:54,42.805,6.029,-0.006,0.023,0.018,105.0,108.0,102.0,13.4,1505.4,322.6,-0.7,1.8,2470.08,13.34,0.023,345.4
2019-08-04T00:42:55,42.805,6.029,-0.01,0.021,-0.027,105.0,109.0,101.0,13.4,1505.4,325.3,-0.7,1.8,2470.026,13.34,0.023,334.5
2019-08-04T00:45:56,42.805,6.029,0.001,0.02,0.009,105.0,109.0,100.0,13.4,1505.4,324.5,-0.7,1.8,2470.076,13.34,0.02,2.9
2019-08-04T00:48:57,42.805,6.029,-0.001,0.015,0.0,107.0,108.0,101.0,13.4,1505.4,326.6,-0.7,1.9,2470.067,13.34,0.015,356.2
2019-08-04T00:51:58,42.805,6.029,-0.011,-0.002,-0.033,107.0,109.0,101.0,13.4,1505.4,328.3,-0.7,1.9,2470.035,13.34,0.011,259.7
2019-08-04T00:54:59,42.805,6.029,0.04,0.006,0.006,106.0,109.0,101.0,13.3,1505.4,324.8,-0.7,1.9,2470.022,13.34,0.04,81.5
2019-08-04T00:58:00,42.805,6.029,0.002,0.013,0.018,104.0,108.0,101.0,13.3,1505.4,326.2,-0.7,1.8,2470.053,13.34,0.013,8.7
2019-08-04T01:01:01,42.805,6.029,-0.022,-0.001,-0.005,105.0,108.0,102.0,13.4,1505.4,326.4,-0.7,1.8,2470.097,13.34,0.022,267.4
2019-08-04T01:04:02,42.805,6.029,-0.004,0.001,-0.023,105.0,108.0,100.0,13.4,1505.4,324.3,-0.7,1.9,2470.045,13.34,0.004,284.0
2019-08-04T01:07:03,42.805,6.029,0.01,0.007,0.002,105.0,110.0,100.0,13.4,1505.4,324.6,-0.7,1.9,2470.038,13.34,0.012,55.0
2019-08-04T01:10:04,42.805,6.029,0.0,0.01,-0.008,102.0,109.0,99.0,13.3,1505.4,324.7,-0.7,1.9,2470.064,13.34,0.01,0.0
2019-08-04T01:13:05,42.805,6.029,-0.008,0.01,0.002,104.0,110.0,99.0,13.4,1505.4,326.2,-0.7,1.8,2470.09,13.34,0.012,321.3
2019-08-04T01:16:06,42.805,6.029,0.004,0.0,-0.013,105.0,108.0,101.0,13.4,1505.4,326.5,-0.7,1.8,2470.02,13.34,0.004,90.0
2019-08-04T01:19:07,42.805,6.029,0.0,0.021,-0.041,105.0,109.0,101.0,13.4,1505.4,324.8,-0.7,1.8,2470.042,13.34,0.021,0.0
2019-08-04T01:22:08,42.805,6.029,0.023,0.015,-0.016,106.0,108.0,100.0,13.4,1505.4,323.4,-0.7,1.9,2470.055,13.34,0.027,56.9
2019-08-04T01:25:09,42.805,6.029,-0.019,0.005,-0.037,104.0,108.0,101.0,13.3,1505.4,326.7,-0.7,1.8,2470.024,13.34,0.019,284.7
2019-08-04T01:28:10,42.805,6.029,-0.013,0.019,0.01,104.0,109.0,102.0,13.3,1505.4,326.2,-0.7,1.9,2470.031,13.34,0.023,325.6
2019-08-04T01:31:11,42.805,6.029,0.004,0.01,-0.004,107.0,107.0,101.0,13.4,1505.4,325.0,-0.7,1.9,2469.974,13.34,0.01,21.8
2019-08-04T01:34:12,42.805,6.029,0.002,0.029,0.002,106.0,109.0,101.0,13.4,1505.4,327.2,-0.7,1.9,2470.079,13.34,0.029,3.9
2019-08-04T01:37:13,42.805,6.029,0.017,0.034,0.026,105.0,108.0,103.0,13.4,1505.4,328.6,-0.7,1.9,2470.037,13.34,0.038,26.6
2019-08-04T01:40:14,42.805,6.029,-0.014,0.002,-0.032,104.0,109.0,100.0,13.4,1505.4,325.9,-0.7,1.8,2470.062,13.34,0.014,278.1
2019-08-04T01:43:15,42.805,6.029,-0.021,0.003,-0.023,104.0,110.0,101.0,13.4,1505.4,327.4,-0.7,1.8,2469.984,13.34,0.021,278.1
2019-08-04T01:46:16,42.805,6.029,-0.017,0.006,0.001,106.0,108.0,101.0,13.4,1505.4,326.5,-0.7,1.8,2470.025,13.34,0.018,289.4
2019-08-04T01:49:17,42.805,6.029,0.002,0.006,-0.011,106.0,108.0,103.0,13.3,1505.4,328.3,-0.7,1.8,2470.028,13.34,0.006,18.4
2019-08-04T01:52:18,42.805,6.029,0.008,0.023,-0.001,106.0,108.0,100.0,13.4,1505.4,324.9,-0.7,1.9,2470.013,13.34,0.024,19.2
2019-08-04T01:55:19,42.805,6.029,-0.004,0.014,-0.03,106.0,109.0,103.0,13.4,1505.4,323.6,-0.7,1.8,2470.003,13.34,0.014,344.1
2019-08-04T01:58:20,42.805,6.029,-0.006,0.008,-0.014,106.0,109.0,102.0,13.4,1505.4,325.2,-0.7,1.8,2470.046,13.34,0.01,323.1
2019-08-04T02:01:21,42.805,6.029,-0.004,0.001,-0.03,107.0,109.0,102.0,13.3,1505.4,326.5,-0.7,1.8,2470.003,13.34,0.004,284.0
2019-08-04T02:04:22,42.805,6.029,0.008,0.015,-0.028,106.0,110.0,102.0,13.3,1505.4,327.4,-0.7,1.8,2470.041,13.34,0.017,28.1
2019-08-04T02:07:23,42.805,6.029,0.005,0.027,0.004,106.0,109.0,102.0,13.4,1505.4,325.3,-0.7,1.9,2469.979,13.34,0.027,10.5
2019-08-04T02:10:24,42.805,6.029,-0.026,0.002,0.0,108.0,110.0,102.0,13.4,1505.4,324.9,-0.7,1.8,2470.02,13.34,0.026,274.4
2019-08-04T02:13:25,42.805,6.029,-0.016,0.026,0.001,107.0,109.0,102.0,13.3,1505.4,324.8,-0.7,1.8,2470.021,13.34,0.03,328.4
2019-08-04T02:16:26,42.805,6.029,0.008,0.008,0.008,107.0,110.0,102.0,13.4,1505.4,324.9,-0.7,1.8,2469.986,13.34,0.011,45.0
2019-08-04T02:19:27,42.805,6.029,-0.003,0.03,0.028,106.0,108.0,103.0,13.3,1505.4,323.8,-0.7,1.8,2469.993,13.34,0.03,354.3
2019-08-04T02:22:28,42.805,6.029,-0.01,0.027,-0.036,106.0,109.0,101.0,13.4,1505.4,325.2,-0.7,1.8,2469.995,13.34,0.028,339.7
2019-08-04T02:25:29,42.805,6.029,0.008,0.035,0.006,106.0,109.0,101.0,13.3,1505.4,324.4,-0.7,1.8,2469.977,13.34,0.035,12.9
2019-08-04T02:28:30,42.805,6.029,-0.017,0.014,0.0,105.0,109.0,101.0,13.3,1505.4,325.2,-0.7,1.9,2469.955,13.34,0.022,309.5
2019-08-04T02:31:31,42.805,6.029,-0.001,0.035,0.016,106.0,109.0,100.0,13.3,1505.4,323.2,-0.7,1.8,2469.969,13.34,0.035,358.4
2019-08-04T02:34:32,42.805,6.029,-0.005,0.031,-0.001,103.0,110.0,101.0,13.4,1505.3,327.4,-0.7,1.8,2470.024,13.33,0.031,350.8
2019-08-04T02:37:33,42.805,6.029,-0.016,0.016,0.027,105.0,108.0,99.0,13.4,1505.3,327.0,-0.7,1.8,2469.977,13.33,0.022,315.0
2019-08-04T02:40:34,42.805,6.029,-0.022,0.013,0.009,104.0,110.0,101.0,13.4,1505.4,326.3,-0.7,1.8,2469.974,13.34,0.025,300.6
2019-08-04T02:43:35,42.805,6.029,-0.03,0.025,-0.031,106.0,110.0,101.0,13.4,1505.4,325.6,-0.7,1.8,2469.998,13.34,0.039,309.8
2019-08-04T02:46:36,42.805,6.029,0.012,0.024,-0.014,107.0,110.0,102.0,13.4,1505.3,323.9,-0.7,1.8,2470.004,13.33,0.026,26.6
2019-08-04T02:49:37,42.805,6.029,-0.017,0.019,-0.022,105.0,110.0,103.0,13.3,1505.4,326.7,-0.7,1.8,2469.927,13.34,0.025,318.2
2019-08-04T02:52:38,42.805,6.029,-0.033,0.007,-0.026,107.0,110.0,102.0,13.3,1505.4,328.3,-0.7,1.8,2469.957,13.34,0.033,282.0
2019-08-04T02:55:39,42.805,6.029,-0.006,0.016,-0.019,107.0,109.0,102.0,13.4,1505.3,325.7,-0.7,1.9,2469.968,13.33,0.017,339.4
2019-08-04T02:58:40,42.805,6.029,-0.017,0.0,-0.012,107.0,109.0,102.0,13.3,1505.4,327.2,-0.7,1.8,2469.987,13.34,0.017,270.0
2019-08-04T03:01:41,42.805,6.029,-0.022,0.011,-0.004,107.0,110.0,102.0,13.3,1505.4,326.4,-0.7,1.9,2469.935,13.34,0.024,296.6
2019-08-04T03:04:42,42.805,6.029,-0.025,0.027,-0.006,107.0,109.0,101.0,13.4,1505.4,324.8,-0.7,1.8,2469.967,13.34,0.036,317.2
2019-08-04T03:07:43,42.805,6.029,-0.006,0.014,-0.018,106.0,109.0,101.0,13.4,1505.4,324.9,-0.7,1.8,2469.961,13.34,0.015,336.8
2019-08-04T03:10:44,42.805,6.029,-0.027,0.029,-0.015,105.0,111.0,101.0,13.4,1505.3,323.8,-0.7,1.8,2470.021,13.33,0.039,317.0
2019-08-04T03:13:45,42.805,6.029,-0.026,0.015,-0.002,107.0,110.0,101.0,13.4,1505.3,325.1,-0.7,1.8,2469.927,13.33,0.03,300.0
2019-08-04T03:16:46,42.805,6.029,-0.014,0.026,0.0,105.0,110.0,102.0,13.4,1505.4,326.8,-0.7,1.8,2469.967,13.34,0.029,331.7
2019-08-04T03:19:47,42.805,6.029,0.01,0.023,-0.004,107.0,110.0,102.0,13.4,1505.3,327.6,-0.8,1.8,2469.943,13.33,0.025,23.5
2019-08-04T03:34:05,42.805,6.029,-0.006,0.016,-0.004,106.0,111.0,102.0,13.4,1505.2,327.5,-0.8,1.8,2470.088,13.29,0.017,339.4
2019-08-04T03:37:06,42.805,6.029,-0.03,0.015,-0.018,105.0,111.0,102.0,13.4,1505.2,326.7,-0.7,1.8,2470.076,13.3,0.033,296.6
2019-08-04T03:40:07,42.805,6.029,-0.016,0.02,0.008,106.0,111.0,102.0,13.4,1505.3,327.9,-0.7,1.8,2470.076,13.31,0.025,321.3
2019-08-04T03:43:08,42.805,6.029,0.0,0.025,0.005,106.0,110.0,102.0,13.4,1505.3,325.6,-0.7,1.8,2470.037,13.32,0.025,0.0
2019-08-04T03:46:09,42.805,6.029,-0.025,0.019,-0.016,106.0,110.0,102.0,13.4,1505.3,324.4,-0.7,1.8,2470.067,13.33,0.031,307.2
2019-08-04T03:49:10,42.805,6.029,0.003,-0.011,-0.005,106.0,112.0,102.0,13.3,1505.3,324.4,-0.7,1.9,2470.045,13.33,0.011,164.7
2019-08-04T03:52:11,42.805,6.029,0.0,0.008,-0.009,106.0,109.0,102.0,13.3,1505.3,326.0,-0.7,1.8,2469.999,13.33,0.008,0.0
2019-08-04T03:55:12,42.805,6.029,-0.012,0.017,-0.017,107.0,110.0,102.0,13.3,1505.3,324.8,-0.7,1.8,2470.018,13.33,0.02,324.8
2019-08-04T03:58:13,42.805,6.029,-0.025,0.029,-0.003,105.0,111.0,102.0,13.3,1505.3,326.5,-0.7,1.9,2469.977,13.33,0.038,319.2
2019-08-04T04:01:14,42.805,6.029,-0.002,0.004,-0.024,105.0,111.0,102.0,13.4,1505.3,328.1,-0.7,1.8,2469.985,13.33,0.004,333.4
2019-08-04T04:04:15,42.805,6.029,-0.016,0.008,-0.01,106.0,110.0,102.0,13.4,1505.3,325.8,-0.7,1.9,2469.966,13.33,0.017,296.6
2019-08-04T04:07:16,42.805,6.029,0.0,-0.008,-0.026,106.0,112.0,103.0,13.4,1505.3,324.0,-0.7,1.8,2469.998,13.33,0.008,180.0
2019-08-04T04:10:17,42.805,6.029,0.003,0.022,-0.028,108.0,110.0,102.0,13.4,1505.4,324.2,-0.7,1.8,2469.962,13.34,0.022,7.8
2019-08-04T04:13:18,42.805,6.029,-0.004,0.021,0.006,107.0,112.0,103.0,13.4,1505.4,326.0,-0.7,1.8,2469.977,13.34,0.021,349.2
2019-08-04T04:16:19,42.805,6.029,0.0,0.013,-0.001,104.0,112.0,102.0,13.3,1505.4,323.6,-0.7,1.9,2470.023,13.34,0.013,0.0
2019-08-04T04:19:20,42.805,6.029,-0.003,0.014,-0.002,105.0,111.0,102.0,13.4,1505.4,327.3,-0.7,1.8,2469.954,13.34,0.014,347.9
2019-08-04T04:22:21,42.805,6.029,0.0,0.016,-0.043,106.0,110.0,102.0,13.4,1505.3,327.2,-0.7,1.8,2469.963,13.33,0.016,0.0
2019-08-04T04:25:22,42.805,6.029,-0.027,0.033,-0.026,107.0,110.0,102.0,13.3,1505.3,324.0,-0.7,1.9,2469.923,13.33,0.042,320.7
2019-08-04T04:28:23,42.805,6.029,-0.025,0.016,-0.013,106.0,110.0,102.0,13.4,1505.3,327.3,-0.7,1.8,2469.975,13.33,0.029,302.6
2019-08-04T04:39:04,42.805,6.029,-0.008,0.02,0.003,106.0,110.0,102.0,13.4,1505.2,325.5,-0.8,1.8,2470.057,13.3,0.021,338.2
2019-08-04T04:42:05,42.805,6.029,-0.008,0.017,-0.006,108.0,111.0,102.0,13.3,1505.3,324.7,-0.7,1.8,2470.041,13.31,0.018,334.8
2019-08-04T04:45:06,42.805,6.029,0.006,0.022,-0.025,108.0,112.0,102.0,13.3,1505.3,323.7,-0.7,1.8,2470.036,13.32,0.022,15.3
2019-08-04T04:48:07,42.805,6.029,-0.022,0.032,-0.016,105.0,111.0,103.0,13.4,1505.3,326.2,-0.7,1.8,2470.034,13.32,0.038,325.5
2019-08-04T04:51:08,42.805,6.029,-0.012,0.023,-0.028,105.0,109.0,103.0,13.4,1505.3,328.1,-0.7,1.8,2469.98,13.33,0.025,332.4
2019-08-04T04:54:09,42.805,6.029,-0.001,0.024,0.006,108.0,109.0,102.0,13.4,1505.3,325.3,-0.7,1.8,2469.978,13.33,0.024,357.6
2019-08-04T04:57:10,42.805,6.029,-0.016,0.002,-0.013,106.0,111.0,102.0,13.4,1505.3,326.4,-0.7,1.9,2470.016,13.33,0.016,277.1
2019-08-04T05:00:11,42.805,6.029,-0.024,0.0,-0.005,108.0,111.0,103.0,13.4,1505.3,323.6,-0.8,1.8,2469.989,13.33,0.024,270.0
2019-08-04T05:03:12,42.805,6.029,-0.027,0.032,-0.031,108.0,110.0,102.0,13.3,1505.3,328.3,-0.7,1.8,2469.947,13.33,0.041,319.8
2019-08-04T05:06:13,42.805,6.029,-0.001,0.046,-0.052,105.0,112.0,102.0,13.4,1505.3,326.7,-0.7,1.8,2469.97,13.33,0.046,358.8
2019-08-04T05:09:14,42.805,6.029,0.0,0.021,-0.002,105.0,111.0,102.0,13.4,1505.3,324.6,-0.7,1.8,2470.013,13.33,0.021,0.0
2019-08-04T05:12:15,42.805,6.029,-0.018,0.031,-0.015,106.0,111.0,102.0,13.4,1505.3,325.5,-0.7,1.8,2470.037,13.33,0.035,329.9
2019-08-04T05:15:16,42.805,6.029,-0.001,0.023,0.011,105.0,113.0,100.0,13.4,1505.3,323.6,-0.7,1.8,2469.975,13.33,0.023,357.5
2019-08-04T05:18:17,42.805,6.029,-0.016,0.035,-0.052,106.0,112.0,103.0,13.4,1505.3,326.2,-0.7,1.8,2469.93,13.33,0.038,335.4
2019-08-04T05:21:18,42.805,6.029,-0.008,0.006,-0.045,107.0,113.0,101.0,13.4,1505.3,324.4,-0.7,1.8,2469.964,13.33,0.01,306.9
2019-08-04T05:24:19,42.805,6.029,-0.015,0.014,0.015,104.0,111.0,102.0,13.4,1505.3,326.2,-0.7,1.8,2469.973,13.33,0.02,313.0
2019-08-04T05:27:20,42.805,6.029,-0.011,0.017,-0.034,105.0,111.0,102.0,13.3,1505.3,323.5,-0.7,1.9,2469.996,13.33,0.02,327.1
2019-08-04T05:30:21,42.805,6.029,-0.013,0.035,-0.03,106.0,112.0,102.0,13.4,1505.3,328.0,-0.7,1.9,2469.945,13.33,0.037,339.6
2019-08-04T05:33:22,42.805,6.029,-0.005,-0.001,-0.034,106.0,111.0,102.0,13.3,1505.3,324.7,-0.7,1.8,2469.948,13.33,0.005,258.7
2019-08-04T05:36:23,42.805,6.029,-0.001,0.024,0.004,106.0,112.0,102.0,13.3,1505.3,326.3,-0.7,1.8,2469.968,13.33,0.024,357.6
2019-08-04T05:39:24,42.805,6.029,-0.027,0.022,-0.024,104.0,111.0,102.0,13.4,1505.3,323.2,-0.7,1.8,2470.003,13.33,0.034,309.2
2019-08-04T05:42:25,42.805,6.029,0.011,0.031,0.021,107.0,111.0,102.0,13.4,1505.3,327.4,-0.7,1.9,2469.917,13.33,0.032,19.5
2019-08-04T05:45:26,42.805,6.029,-0.021,0.032,0.001,106.0,111.0,102.0,13.4,1505.4,324.6,-0.7,1.8,2469.95,13.34,0.038,326.7
2019-08-04T05:48:27,42.805,6.029,0.0,0.015,-0.031,106.0,110.0,102.0,13.4,1505.3,325.4,-0.7,1.8,2469.917,13.33,0.015,0.0
2019-08-04T05:51:28,42.805,6.029,-0.02,0.039,-0.018,106.0,111.0,103.0,13.4,1505.3,322.9,-0.7,1.8,2469.953,13.33,0.043,332.9
2019-08-04T05:54:29,42.805,6.029,0.0,0.024,-0.017,106.0,109.0,102.0,13.3,1505.3,327.9,-0.7,1.8,2469.933,13.33,0.024,0.0
2019-08-04T05:57:30,42.805,6.029,-0.026,0.023,0.001,105.0,112.0,101.0,13.3,1505.3,324.7,-0.7,1.8,2470.015,13.33,0.034,311.5
2019-08-04T06:00:31,42.805,6.029,-0.006,0.016,-0.043,105.0,113.0,103.0,13.4,1505.3,323.6,-0.7,1.8,2469.976,13.33,0.017,339.4
2019-08-04T06:03:32,42.805,6.029,0.0,0.029,0.021,107.0,112.0,102.0,13.4,1505.3,327.0,-0.7,1.8,2470.029,13.33,0.028,0.0
2019-08-04T06:06:33,42.805,6.029,-0.053,0.011,-0.022,107.0,111.0,103.0,13.4,1505.3,327.0,-0.7,1.8,2469.963,13.33,0.054,281.7
2019-08-04T06:09:34,42.805,6.029,-0.029,0.022,-0.018,106.0,112.0,102.0,13.4,1505.3,325.2,-0.7,1.8,2469.972,13.33,0.036,307.2
2019-08-04T06:12:35,42.805,6.029,-0.011,0.018,-0.008,106.0,113.0,103.0,13.4,1505.3,328.2,-0.7,1.8,2469.983,13.33,0.021,328.6
2019-08-04T06:15:36,42.805,6.029,0.009,0.016,0.032,105.0,111.0,101.0,13.3,1505.3,324.4,-0.7,1.8,2469.962,13.33,0.018,29.4
2019-08-04T06:18:37,42.805,6.029,-0.014,0.027,-0.025,105.0,110.0,102.0,13.4,1505.3,326.6,-0.7,1.8,2470.025,13.33,0.03,332.6
2019-08-04T06:21:38,42.805,6.029,-0.012,0.007,0.011,107.0,111.0,102.0,13.4,1505.3,324.4,-0.7,1.8,2469.999,13.33,0.013,300.3
2019-08-04T06:24:39,42.805,6.029,-0.004,0.046,-0.004,104.0,111.0,102.0,13.3,1505.3,324.8,-0.7,1.8,2470.011,13.33,0.046,355.0
2019-08-04T06:27:40,42.805,6.029,-0.024,0.021,-0.025,106.0,110.0,103.0,13.3,1505.3,328.4,-0.7,1.8,2469.976,13.33,0.031,311.2
2019-08-04T06:30:41,42.805,6.029,-0.007,0.028,0.024,105.0,113.0,102.0,13.4,1505.3,325.5,-0.7,1.8,2470.015,13.33,0.028,346.0
2019-08-04T06:33:42,42.805,6.029,-0.012,0.008,0.009,106.0,110.0,102.0,13.3,1505.3,322.9,-0.7,1.9,2469.979,13.33,0.014,303.7
2019-08-04T06:36:43,42.805,6.029,-0.01,0.026,-0.026,106.0,111.0,102.0,13.4,1505.3,327.4,-0.7,1.8,2470.033,13.33,0.027,339.0
2019-08-04T06:39:44,42.805,6.029,-0.02,0.009,0.001,106.0,110.0,101.0,13.3,1505.3,325.3,-0.7,1.8,2470.004,13.33,0.021,294.2
2019-08-04T06:42:45,42.805,6.029,-0.009,0.011,-0.043,107.0,111.0,102.0,13.4,1505.3,324.3,-0.7,1.9,2470.064,13.33,0.014,320.7
2019-08-04T06:45:46,42.805,6.029,0.01,0.007,0.001,110.0,112.0,102.0,13.4,1505.3,327.3,-0.7,1.8,2469.988,13.33,0.012,55.0
2019-08-04T06:48:47,42.805,6.029,-0.02,0.029,-0.012,105.0,110.0,102.0,13.4,1505.3,325.0,-0.8,1.9,2470.046,13.33,0.035,325.4
2019-08-04T06:51:48,42.805,6.029,-0.015,-0.008,-0.017,108.0,111.0,102.0,13.4,1505.4,327.2,-0.7,1.8,2470.011,13.34,0.017,241.9
2019-08-04T06:54:49,42.805,6.029,-0.04,0.008,-0.015,108.0,111.0,102.0,13.4,1505.4,323.8,-0.7,1.8,2470.008,13.34,0.04,281.3
2019-08-04T06:57:50,42.805,6.029,-0.02,0.038,-0.012,106.0,110.0,103.0,13.4,1505.4,324.8,-0.7,1.9,2470.026,13.34,0.042,332.2
2019-08-04T07:00:51,42.805,6.029,-0.024,0.019,0.04,106.0,110.0,103.0,13.3,1505.4,328.3,-0.7,1.8,2470.042,13.34,0.03,308.4
2019-08-04T07:03:52,42.805,6.029,0.016,0.005,0.006,106.0,111.0,103.0,13.4,1505.4,326.0,-0.7,1.8,2470.057,13.34,0.016,72.6
2019-08-04T07:06:53,42.805,6.029,-0.015,0.034,-0.025,108.0,112.0,103.0,13.4,1505.4,324.4,-0.7,1.8,2470.06,13.34,0.037,336.2
2019-08-04T07:09:54,42.805,6.029,-0.037,0.041,-0.012,107.0,111.0,102.0,13.4,1505.3,326.1,-0.7,1.8,2470.019,13.33,0.055,317.9
2019-08-04T07:12:55,42.805,6.029,-0.003,0.014,-0.021,106.0,110.0,103.0,13.4,1505.3,324.4,-0.7,1.8,2470.024,13.33,0.014,347.9
2019-08-04T07:15:56,42.805,6.029,-0.02,0.02,-0.033,107.0,109.0,102.0,13.4,1505.4,327.4,-0.7,1.8,2470.001,13.34,0.028,315.0
2019-08-04T07:18:57,42.805,6.029,0.001,0.011,-0.008,106.0,112.0,104.0,13.4,1505.4,327.6,-0.7,1.8,2470.065,13.34,0.011,5.2
2019-08-04T07:21:58,42.805,6.029,-0.012,0.009,-0.055,105.0,112.0,102.0,13.4,1505.4,326.3,-0.7,1.8,2470.055,13.34,0.015,306.9
2019-08-04T07:24:59,42.805,6.029,-0.013,0.035,-0.04,106.0,110.0,103.0,13.4,1505.4,323.0,-0.7,1.8,2470.056,13.34,0.037,339.6
2019-08-04T07:28:00,42.805,6.029,-0.023,-0.011,-0.018,107.0,112.0,101.0,13.4,1505.3,327.5,-0.7,1.9,2470.033,13.33,0.025,244.4
2019-08-04T07:31:01,42.805,6.029,-0.012,0.022,-0.022,105.0,112.0,102.0,13.4,1505.3,325.0,-0.7,1.8,2470.037,13.33,0.025,331.4
2019-08-04T07:34:02,42.805,6.029,-0.025,0.017,-0.014,108.0,109.0,101.0,13.4,1505.3,324.6,-0.7,1.8,2470.042,13.33,0.03,304.2
2019-08-04T07:37:03,42.805,6.029,-0.022,0.009,-0.014,106.0,111.0,101.0,13.3,1505.3,328.2,-0.7,1.8,2470.062,13.33,0.023,292.2
2019-08-04T07:40:04,42.805,6.029,0.0,0.024,0.01,105.0,109.0,102.0,13.4,1505.3,324.0,-0.7,1.8,2470.04,13.33,0.024,0.0
2019-08-04T07:43:05,42.805,6.029,-0.031,0.024,-0.022,106.0,111.0,101.0,13.4,1505.3,323.0,-0.7,1.9,2470.097,13.33,0.039,307.7
2019-08-04T07:46:06,42.805,6.029,-0.017,0.006,-0.003,106.0,111.0,100.0,13.4,1505.3,327.6,-0.7,1.8,2470.057,13.33,0.018,289.4
2019-08-04T07:49:07,42.805,6.029,-0.019,0.034,-0.001,105.0,112.0,101.0,13.4,1505.3,324.6,-0.7,1.9,2470.056,13.33,0.038,330.8
2019-08-04T07:52:08,42.805,6.029,-0.021,0.022,-0.052,107.0,111.0,101.0,13.4,1505.3,324.9,-0.7,1.8,2470.06,13.33,0.03,316.3
2019-08-04T07:55:09,42.805,6.029,-0.016,0.015,0.01,105.0,111.0,101.0,13.4,1505.3,326.4,-0.7,1.8,2470.072,13.33,0.021,313.1
2019-08-04T07:58:10,42.805,6.029,-0.019,0.026,0.016,106.0,112.0,101.0,13.3,1505.4,323.2,-0.7,1.9,2470.101,13.34,0.032,323.8
2019-08-04T08:01:11,42.805,6.029,-0.022,0.013,-0.029,107.0,110.0,101.0,13.4,1505.4,327.2,-0.7,1.9,2470.104,13.34,0.025,300.6
2019-08-04T08:04:12,42.805,6.029,-0.004,0.049,-0.025,105.0,111.0,101.0,13.4,1505.4,324.7,-0.7,1.8,2470.072,13.34,0.049,355.3
2019-08-04T08:07:13,42.805,6.029,-0.024,0.004,-0.003,105.0,110.0,102.0,13.3,1505.4,325.1,-0.7,1.8,2470.113,13.34,0.024,279.5
2019-08-04T08:10:14,42.805,6.029,-0.036,0.011,-0.018,105.0,112.0,102.0,13.4,1505.4,326.0,-0.7,1.9,2470.116,13.34,0.037,287.0
2019-08-04T08:13:15,42.805,6.029,-0.018,0.025,-0.022,105.0,111.0,101.0,13.4,1505.4,327.4,-0.7,1.8,2470.051,13.34,0.03,324.2
2019-08-04T08:16:16,42.805,6.029,-0.024,0.011,-0.008,106.0,111.0,101.0,13.4,1505.4,324.0,-0.7,1.8,2470.089,13.34,0.026,294.6
2019-08-04T08:19:17,42.805,6.029,-0.009,0.022,0.024,107.0,110.0,101.0,13.4,1505.4,324.7,-0.7,1.8,2470.084,13.34,0.023,337.8
2019-08-04T08:22:18,42.805,6.029,-0.016,0.011,-0.034,104.0,110.0,102.0,13.3,1505.4,325.8,-0.7,1.8,2470.082,13.34,0.019,304.5
2019-08-04T08:25:19,42.805,6.029,0.001,0.019,-0.027,104.0,110.0,101.0,13.4,1505.4,326.9,-0.7,1.8,2470.119,13.34,0.019,3.0
2019-08-04T08:28:20,42.805,6.029,-0.018,0.013,0.02,106.0,111.0,101.0,13.3,1505.4,323.8,-0.7,1.8,2470.12,13.34,0.022,305.8
2019-08-04T08:31:21,42.805,6.029,-0.019,0.023,-0.02,105.0,112.0,101.0,13.4,1505.4,324.3,-0.7,1.9,2470.105,13.34,0.029,320.4
2019-08-04T08:34:22,42.805,6.029,-0.006,0.032,0.023,106.0,110.0,101.0,13.3,1505.4,325.6,-0.7,1.8,2470.138,13.34,0.032,349.4
2019-08-04T08:37:23,42.805,6.029,-0.021,0.008,-0.028,104.0,110.0,102.0,13.3,1505.3,326.8,-0.7,1.8,2470.106,13.33,0.022,290.9
2019-08-04T08:40:24,42.805,6.029,-0.038,0.026,0.005,104.0,112.0,100.0,13.4,1505.4,327.8,-0.7,1.8,2470.119,13.34,0.046,304.4
2019-08-04T08:43:25,42.805,6.029,-0.007,-0.008,-0.008,106.0,111.0,101.0,13.3,1505.3,324.7,-0.7,1.8,2470.137,13.33,0.01,221.2
2019-08-04T08:46:26,42.805,6.029,-0.013,0.004,-0.028,109.0,112.0,100.0,13.4,1505.3,326.3,-0.7,1.8,2470.099,13.33,0.013,287.1
2019-08-04T08:49:27,42.805,6.029,-0.005,0.017,-0.011,104.0,111.0,101.0,13.3,1505.4,326.8,-0.7,1.9,2470.116,13.34,0.017,343.6
2019-08-04T08:52:28,42.805,6.029,-0.033,0.002,-0.024,105.0,111.0,102.0,13.4,1505.4,324.7,-0.7,1.9,2470.104,13.34,0.033,273.5
2019-08-04T08:55:29,42.805,6.029,0.004,0.026,-0.015,106.0,110.0,101.0,13.4,1505.4,323.0,-0.7,1.8,2470.143,13.34,0.026,8.7
2019-08-04T08:58:30,42.805,6.029,-0.025,0.013,-0.034,106.0,111.0,102.0,13.3,1505.4,325.1,-0.7,1.8,2470.121,13.34,0.028,297.5
2019-08-04T09:01:31,42.805,6.029,-0.016,0.011,-0.006,105.0,112.0,102.0,13.4,1505.4,327.5,-0.7,1.8,2470.104,13.34,0.019,304.5
2019-08-04T09:04:32,42.805,6.029,-0.003,0.017,-0.037,106.0,111.0,100.0,13.4,1505.4,325.3,-0.7,1.8,2470.095,13.34,0.017,350.0
2019-08-04T09:07:33,42.805,6.029,-0.024,0.009,-0.019,104.0,109.0,101.0,13.4,1505.4,323.0,-0.7,1.8,2470.105,13.34,0.025,290.6
2019-08-04T09:10:34,42.805,6.029,-0.03,0.012,0.027,105.0,113.0,101.0,13.4,1505.4,326.6,-0.7,1.9,2470.129,13.34,0.032,291.8
2019-08-04T09:13:35,42.805,6.029,-0.017,0.017,0.0,106.0,111.0,103.0,13.4,1505.4,325.0,-0.7,1.8,2470.106,13.34,0.024,315.0
2019-08-04T09:16:36,42.805,6.029,-0.026,0.016,-0.009,107.0,112.0,103.0,13.4,1505.4,326.5,-0.7,1.8,2470.106,13.34,0.03,301.6
2019-08-04T09:19:37,42.805,6.029,-0.025,0.013,-0.038,107.0,113.0,102.0,13.3,1505.4,325.8,-0.7,1.8,2470.093,13.34,0.028,297.5
2019-08-04T09:22:38,42.805,6.029,-0.022,0.023,-0.01,105.0,111.0,103.0,13.4,1505.4,326.4,-0.7,1.8,2470.139,13.34,0.031,316.3
2019-08-04T09:25:39,42.805,6.029,-0.032,0.012,-0.059,105.0,113.0,102.0,13.3,1505.4,326.2,-0.7,1.8,2470.137,13.34,0.034,290.6
2019-08-04T09:28:40,42.805,6.029,-0.017,0.012,-0.016,109.0,112.0,104.0,13.4,1505.4,326.2,-0.7,1.8,2470.076,13.34,0.02,305.2
2019-08-04T09:31:41,42.805,6.029,-0.026,0.03,0.002,107.0,113.0,103.0,13.4,1505.4,328.2,-0.7,1.8,2470.118,13.34,0.039,319.1
2019-08-04T09:34:42,42.805,6.029,-0.032,0.013,-0.017,106.0,112.0,102.0,13.4,1505.4,325.6,-0.7,1.8,2470.157,13.34,0.034,292.1
2019-08-04T09:37:43,42.805,6.029,-0.031,0.01,-0.019,107.0,113.0,103.0,13.4,1505.4,326.1,-0.8,1.8,2470.065,13.34,0.032,287.9
2019-08-04T09:40:44,42.805,6.029,-0.037,0.01,-0.036,109.0,112.0,102.0,13.3,1505.4,322.9,-0.7,1.8,2470.097,13.34,0.038,285.1
2019-08-04T09:43:45,42.805,6.029,-0.038,0.035,-0.061,107.0,114.0,103.0,13.3,1505.4,327.6,-0.7,1.8,2470.152,13.34,0.051,312.6
2019-08-04T09:46:46,42.805,6.029,-0.018,-0.003,-0.029,106.0,112.0,102.0,13.3,1505.4,325.1,-0.7,1.8,2470.131,13.34,0.018,260.5
2019-08-04T09:49:47,42.805,6.029,-0.014,-0.004,-0.014,105.0,112.0,102.0,13.4,1505.4,324.7,-0.7,1.8,2470.093,13.34,0.014,254.1